When you browse on this site, cookies collect data to enhance your experience and personalize the content and advertising you see.
Visit our Privacy Policy to learn more. By continuing to use the site, you agree to this use of cookies and data.
  • In Czech Republic
  • List of Countries
  • For 7 days
  • Water Temperature
  • Satellite Maps
  • Weather Map
  • Weather Widgets
  • user-avatar
    Login

    Hourly Weather Klagenfurt

    Today, 19 February, Tuesday

    Time Temperature Precipitation Wind Pressure Humidity
    00:00 +2°C° 0 mm 1 mps 691 mmHg 73%
    01:00 +2°C° 0 mm 1 mps 691 mmHg 72%
    02:00 +2°C° 0 mm 1 mps 691 mmHg 72%
    03:00 +2°C° 0 mm 1 mps 690 mmHg 72%
    04:00 +2°C° 0 mm 1 mps 690 mmHg 72%
    05:00 +1°C° 0 mm 1 mps 690 mmHg 73%
    06:00 +1°C° 0 mm 1 mps 690 mmHg 74%
    07:00 -1°C° 0 mm 2 mps 691 mmHg 73%
    08:00 +3°C° 0 mm 1 mps 691 mmHg 69%
    09:00 +5°C° 0 mm 1 mps 691 mmHg 64%
    10:00 +7°C° 0 mm 1 mps 692 mmHg 60%
    11:00 +8°C° 0 mm 1 mps 692 mmHg 58%
    12:00 +10°C° 0 mm 1 mps 692 mmHg 55%
    13:00 +11°C° 0 mm 1 mps 692 mmHg 53%
    14:00 +10°C° 0 mm 1 mps 692 mmHg 56%
    15:00 +10°C° 0 mm 1 mps 692 mmHg 59%
    16:00 +10°C° 0 mm 1 mps 692 mmHg 63%
    17:00 +8°C° 0 mm 1 mps 692 mmHg 69%
    18:00 +6°C° 0 mm 1 mps 692 mmHg 76%
    19:00 +4°C° 0 mm 1 mps 691 mmHg 83%
    20:00 +4°C° 0 mm 1 mps 692 mmHg 84%
    21:00 +3°C° 0 mm 1 mps 692 mmHg 85%
    22:00 +3°C° 0 mm 1 mps 692 mmHg 86%
    23:00 +3°C° 0 mm 1 mps 692 mmHg 86%

    Tomorrow, 20 February, Wednesday

    Time Temperature Precipitation Wind Pressure Humidity
    00:00 +2°C° 0 mm 1 mps 692 mmHg 86%
    01:00 +2°C° 0 mm 1 mps 692 mmHg 86%
    02:00 +2°C° 0 mm 1 mps 692 mmHg 85%
    03:00 +2°C° 0 mm 1 mps 692 mmHg 85%
    04:00 +2°C° 0 mm 1 mps 692 mmHg 84%
    05:00 +1°C° 0 mm 1 mps 692 mmHg 83%
    06:00 +1°C° 0 mm 1 mps 692 mmHg 82%
    07:00 +1°C° 0 mm 1 mps 692 mmHg 81%
    08:00 +3°C° 0 mm 1 mps 693 mmHg 73%
    09:00 +5°C° 0 mm 0 mps 693 mmHg 66%
    10:00 +7°C° 0 mm 0 mps 694 mmHg 58%
    11:00 +8°C° 0 mm 0 mps 694 mmHg 55%
    12:00 +9°C° 0 mm 0 mps 695 mmHg 53%
    13:00 +10°C° 0 mm 0 mps 695 mmHg 50%
    14:00 +10°C° 0 mm 0 mps 695 mmHg 52%
    15:00 +9°C° 0 mm 0 mps 694 mmHg 54%
    16:00 +9°C° 0 mm 0 mps 694 mmHg 56%
    17:00 +7°C° 0 mm 0 mps 694 mmHg 62%
    18:00 +5°C° 0 mm 0 mps 694 mmHg 67%
    19:00 +4°C° 0 mm 0 mps 694 mmHg 73%
    20:00 +3°C° 0 mm 0 mps 694 mmHg 75%
    21:00 +3°C° 0 mm 0 mps 695 mmHg 77%
    22:00 +3°C° 0 mm 0 mps 695 mmHg 78%
    23:00 +3°C° 0 mm 1 mps 695 mmHg 80%

    Day after tomorrow, 21 February, Thursday

    Time Temperature Precipitation Wind Pressure Humidity
    00:00 +3°C° 0 mm 1 mps 695 mmHg 81%
    01:00 +3°C° 0 mm 1 mps 695 mmHg 82%
    02:00 +3°C° 0 mm 1 mps 695 mmHg 83%
    03:00 +2°C° 0 mm 1 mps 695 mmHg 83%
    04:00 +2°C° 0 mm 1 mps 695 mmHg 84%
    05:00 +2°C° 0 mm 1 mps 695 mmHg 84%
    06:00 +2°C° 0 mm 1 mps 696 mmHg 84%
    07:00 +2°C° 0 mm 1 mps 696 mmHg 84%
    08:00 +3°C° 0 mm 0 mps 696 mmHg 77%
    09:00 +5°C° 0 mm 0 mps 697 mmHg 70%
    10:00 +7°C° 0 mm 0 mps 697 mmHg 63%
    11:00 +9°C° 0 mm 0 mps 697 mmHg 59%
    12:00 +10°C° 0 mm 0 mps 697 mmHg 55%
    13:00 +11°C° 0 mm 0 mps 697 mmHg 51%
    14:00 +11°C° 0 mm 0 mps 697 mmHg 52%
    15:00 +11°C° 0 mm 0 mps 697 mmHg 53%
    16:00 +10°C° 0 mm 0 mps 696 mmHg 54%
    17:00 +8°C° 0 mm 0 mps 696 mmHg 61%
    18:00 +8°C° 0 mm 1 mps 696 mmHg 68%
    19:00 +6°C° 0 mm 1 mps 696 mmHg 74%
    20:00 +6°C° 0 mm 1 mps 696 mmHg 76%
    21:00 +5°C° 0 mm 1 mps 696 mmHg 78%
    22:00 +5°C° 0 mm 1 mps 696 mmHg 80%
    23:00 +4°C° 0 mm 1 mps 696 mmHg 80%

    22 February, Friday

    Time Temperature Precipitation Wind Pressure Humidity
    00:00 +4°C° 0 mm 1 mps 696 mmHg 80%
    01:00 +4°C° 0 mm 1 mps 696 mmHg 80%
    02:00 +4°C° 0 mm 1 mps 696 mmHg 79%
    03:00 +3°C° 0 mm 1 mps 696 mmHg 77%
    04:00 +3°C° 0 mm 1 mps 695 mmHg 76%
    05:00 +3°C° 0 mm 1 mps 696 mmHg 76%
    06:00 +3°C° 0 mm 1 mps 696 mmHg 76%
    07:00 +3°C° 0 mm 1 mps 696 mmHg 76%
    08:00 +5°C° 0 mm 1 mps 696 mmHg 70%
    09:00 +6°C° 0 mm 2 mps 697 mmHg 64%
    10:00 +8°C° 0 mm 2 mps 697 mmHg 58%
    11:00 +9°C° 0 mm 2 mps 697 mmHg 53%
    12:00 +10°C° 0 mm 3 mps 698 mmHg 49%
    13:00 +11°C° 0 mm 3 mps 698 mmHg 44%
    14:00 +11°C° 0 mm 3 mps 698 mmHg 46%
    15:00 +11°C° 0 mm 3 mps 697 mmHg 48%
    16:00 +10°C° 0 mm 2 mps 697 mmHg 50%
    17:00 +8°C° 0 mm 2 mps 697 mmHg 57%
    18:00 +7°C° 0 mm 2 mps 698 mmHg 64%
    19:00 +5°C° 0 mm 2 mps 698 mmHg 71%
    20:00 +5°C° 0 mm 1 mps 698 mmHg 73%
    21:00 +5°C° 0 mm 1 mps 699 mmHg 75%
    22:00 +4°C° 0 mm 1 mps 699 mmHg 77%
    23:00 +4°C° 0 mm 1 mps 699 mmHg 79%

    23 February, Saturday

    Time Temperature Precipitation Wind Pressure Humidity
    00:00 +3°C° 0 mm 1 mps 700 mmHg 82%
    01:00 +3°C° 0 mm 1 mps 700 mmHg 85%
    02:00 +2°C° 0 mm 1 mps 700 mmHg 86%
    03:00 +2°C° 0 mm 1 mps 700 mmHg 87%
    04:00 +1°C° 0 mm 1 mps 700 mmHg 88%
    05:00 +1°C° 0 mm 1 mps 700 mmHg 85%
    06:00 0°C° 0 mm 1 mps 700 mmHg 82%
    07:00 0°C° 0 mm 1 mps 700 mmHg 80%
    08:00 +1°C° 0 mm 1 mps 700 mmHg 73%
    09:00 +2°C° 0 mm 1 mps 701 mmHg 66%
    10:00 +3°C° 0 mm 1 mps 701 mmHg 60%
    11:00 +4°C° 0 mm 1 mps 701 mmHg 56%
    12:00 +5°C° 0 mm 1 mps 701 mmHg 52%
    13:00 +7°C° 0 mm 1 mps 701 mmHg 49%
    14:00 +7°C° 0 mm 1 mps 701 mmHg 49%
    15:00 +6°C° 0 mm 1 mps 700 mmHg 48%
    16:00 +6°C° 0 mm 1 mps 700 mmHg 48%
    17:00 +5°C° 0 mm 1 mps 700 mmHg 53%
    18:00 +3°C° 0 mm 1 mps 699 mmHg 57%
    19:00 +1°C° 0 mm 1 mps 699 mmHg 62%
    20:00 +1°C° 0 mm 1 mps 699 mmHg 62%
    21:00 0°C° 0 mm 1 mps 699 mmHg 63%
    22:00 0°C° 0 mm 1 mps 699 mmHg 63%
    23:00 0°C° 0 mm 1 mps 699 mmHg 63%

    24 February, Sunday

    Time Temperature Precipitation Wind Pressure Humidity
    00:00 0°C° 0 mm 1 mps 699 mmHg 64%
    01:00 -1°C° 0 mm 0 mps 699 mmHg 65%
    02:00 -1°C° 0 mm 0 mps 698 mmHg 65%
    03:00 -1°C° 0 mm 0 mps 698 mmHg 65%
    04:00 -1°C° 0 mm 0 mps 698 mmHg 65%
    05:00 -1°C° 0 mm 0 mps 698 mmHg 63%
    06:00 -1°C° 0 mm 0 mps 698 mmHg 61%
    07:00 -1°C° 0 mm 0 mps 698 mmHg 59%
    08:00 +2°C° 0 mm 1 mps 698 mmHg 52%
    09:00 +5°C° 0 mm 1 mps 699 mmHg 45%
    10:00 +7°C° 0 mm 1 mps 699 mmHg 38%
    11:00 +8°C° 0 mm 1 mps 699 mmHg 38%
    12:00 +9°C° 0 mm 1 mps 699 mmHg 38%
    13:00 +9°C° 0 mm 2 mps 699 mmHg 38%
    14:00 +9°C° 0 mm 2 mps 699 mmHg 40%
    15:00 +10°C° 0 mm 1 mps 699 mmHg 42%
    16:00 +10°C° 0 mm 1 mps 699 mmHg 44%
    17:00 +7°C° 0 mm 1 mps 699 mmHg 53%
    18:00 +5°C° 0 mm 1 mps 699 mmHg 61%
    19:00 +3°C° 0 mm 1 mps 699 mmHg 70%
    20:00 +2°C° 0 mm 1 mps 699 mmHg 73%
    21:00 +1°C° 0 mm 1 mps 699 mmHg 76%
    22:00 +1°C° 0 mm 1 mps 699 mmHg 80%
    23:00 +1°C° 0 mm 1 mps 699 mmHg 81%
    Show more